Flag for Venezuela Weather past 2 weeks in Barquisimeto, Venezuela

Now
84 °F

Scattered showers. Partly sunny.


Feels Like: 87 °F
Forecast: N/A
Wind: 18 mph from South

Location: Barquisimeto Airport

Current Time: Sep 23, 2014 at 4:35:51 PM

Latest Report: Sep 23, 2014 at 3:30 PM


Visibility: N/A

Pressure: 29.92 "Hg

Humidity: 58%

Dew point: 68 °F

Location of BarquisimetoLocation

Historic Weather in Barquisimeto — Graph

°F

Barquisimeto temperature yesterday

Maximum temperature yesterday: 90 °F (at 1:30 PM)
Minimum temperature yesterday: 72 °F (at 4:30 AM)
Average temperature yesterday: 80 °F

Past Weeks' High & Low Weather Summary

 TemperatureHumidityPressure
High90 °F (Sep 16, 2:30 PM)100% (Sep 11, 7:30 AM)30.07 "Hg (Sep 11, 7:30 AM)
Low70 °F (Sep 10, 4:30 AM)46% (Sep 10, 2:30 PM)29.89 "Hg (Sep 11, 3:30 PM)
Average78 °F74%29.99 "Hg
* Reported Sep 8 3:30 PM — Sep 23 3:30 PM, Barquisimeto, Weather by CustomWeather, © 2014

Note: Actual official high and low records may vary slightly from our data, if they occured in-between our weather recording intervals... More about our weather records

Advertising

Barquisimeto weather history for previous 24 hours

 ConditionsComfort  
Time TempWeatherWind HumidityBarometerVisibility
3:30 PM
Sep 23
84 °FScattered showers. Partly sunny.18 mph58%29.92 "HgN/A
2:30 PM88 °FScattered clouds.15 mph49%29.95 "HgN/A
1:30 PM88 °FScattered clouds.18 mph49%29.95 "HgN/A
12:30 PM86 °FScattered clouds.12 mph55%29.98 "HgN/A
11:30 AM84 °FPartly sunny.14 mph58%30.01 "HgN/A
10:30 AM81 °FPartly sunny.9 mph66%30.01 "HgN/A
9:30 AM79 °FBroken clouds.7 mph70%30.01 "HgN/A
8:30 AM79 °FPartly sunny.5 mph70%30.01 "HgN/A
7:30 AM73 °FScattered clouds.2 mph89%29.98 "HgN/A
6:30 AM72 °FPartly sunny.9 mph94%29.95 "Hg5 mi
5:30 AM72 °FPartly sunny.12 mph94%29.95 "HgN/A
4:30 AM72 °FPassing clouds.12 mph94%29.95 "HgN/A
1:30 AM73 °FPassing clouds.12 mph89%29.98 "HgN/A
10:30 PM
Sep 22
75 °FPassing clouds.10 mph83%29.98 "HgN/A
9:30 PM75 °FPassing clouds.16 mph83%29.95 "HgN/A
8:30 PM75 °FPassing clouds.15 mph83%29.95 "HgN/A
7:30 PM77 °FPassing clouds.16 mph79%29.92 "HgN/A
6:30 PM79 °FPassing clouds.16 mph74%29.89 "HgN/A
5:30 PM82 °FScattered clouds.17 mph66%29.89 "HgN/A
4:30 PM86 °FScattered clouds.13 mph55%29.89 "HgN/A
Weather by CustomWeather, © 2014

See weather overviewHow to use our weather pages